Stations météo

réclame
Mon MeteoGroup
Stockholm/Bromma, Suède (2464): Température de l'air & dewpoint: 28.07.2020 13:00:00 - 03.08.2020 13:00:00 (CEST)Stockholm/Bromma, Suède (2464): Vitesse du vent: 28.07.2020 13:00:00 - 03.08.2020 13:00:00 (CEST)Stockholm/Bromma, Suède (2464): Direction du vent: 28.07.2020 13:00:00 - 03.08.2020 13:00:00 (CEST)Stockholm/Bromma, Suède (2464): reduced air pressure: 28.07.2020 13:00:00 - 03.08.2020 13:00:00 (CEST)Stockholm/Bromma, Suède (2464): visibility: 28.07.2020 13:00:00 - 03.08.2020 13:00:00 (CEST)
Date & Time tt [°C] td [°C] ff [km/h] ff [knt] dd ppp [hPa] vv [km]
03.08.2020 13:00:00 19,5 10,4 18 10 WSW 1006,1 10
03.08.2020 12:00:00 19,2 11,0 18 10 W 1006,1 10
03.08.2020 11:00:00 17,2 10,8 22 12 W 1006,2 10
03.08.2020 10:00:00 16,9 10,7 24 13 WSW 1006,0 10
03.08.2020 09:00:00 16,1 11,1 21 11 SW 1006,2 10
03.08.2020 08:00:00 15,5 11,3 22 12 WSW 1006,1 10
03.08.2020 07:00:00 14,7 11,5 18 10 W 1006,0 10
03.08.2020 06:00:00 14,7 12,2 13 7 WSW 1006,1 10
03.08.2020 05:00:00 14,4 12,6 11 6 SW 1005,9 10
03.08.2020 04:00:00 14,9 12,6 11 6 WSW 1005,9 10
03.08.2020 03:00:00 15,6 12,7 15 8 WSW 1006,1 10
03.08.2020 02:00:00 16,1 13,4 13 7 WSW 1006,3 10
03.08.2020 01:00:00 16,6 14,2 11 6 WSW 1006,2 10
03.08.2020 00:00:00 17,4 15,4 15 8 W 1006,1 10
02.08.2020 23:00:00 17,8 15,6 11 6 SW 1005,9 10
02.08.2020 22:00:00 18,1 15,7 9 5 S 1005,9 10
02.08.2020 21:00:00 17,9 15,2 9 5 S 1005,9 10
02.08.2020 20:00:00 18,7 15,0 18 10 S 1006,2 10
02.08.2020 19:00:00 18,7 14,2 13 7 SSE 1006,7 10
02.08.2020 18:00:00 19,4 13,1 18 10 S 1007,1 10
02.08.2020 17:00:00 21,0 12,9 22 12 S 1007,5 10
02.08.2020 16:00:00 21,7 13,3 21 11 S 1008,0 10
02.08.2020 15:00:00 22,8 11,5 21 11 S 1008,7 10
02.08.2020 14:00:00 22,9 8,2 18 10 SSW 1008,7 10
02.08.2020 13:00:00 23,8 5,2 16 9 S 1009,1 10
02.08.2020 12:00:00 23,4 13,3 13 7 S 1009,5 10
02.08.2020 11:00:00 22,7 15,5 11 6 SSW 1010,0 10
02.08.2020 10:00:00 21,9 15,0 13 7 SSW 1010,2 10
02.08.2020 09:00:00 21,3 14,5 9 5 S 1010,4 10
02.08.2020 08:00:00 19,4 14,6 8 4 S 1011,0 10
02.08.2020 07:00:00 17,6 14,9 5 3 - 1011,3 10
02.08.2020 06:00:00 15,3 14,0 5 3 SE 1011,7 10
02.08.2020 05:00:00 15,2 13,6 5 3 SSE 1012,1 10
02.08.2020 04:00:00 16,4 13,9 5 3 SSE 1012,6 10
02.08.2020 03:00:00 16,0 13,7 4 2 - 1013,0 10
02.08.2020 02:00:00 16,0 13,1 5 3 SSE 1013,5 10
02.08.2020 01:00:00 16,5 13,0 5 3 SSE 1014,2 10
02.08.2020 00:00:00 16,5 11,8 5 3 SSE 1014,6 10
01.08.2020 23:00:00 15,9 10,2 5 3 SSE 1014,9 10
01.08.2020 22:00:00 17,9 11,5 8 4 S 1015,2 10
01.08.2020 21:00:00 19,5 12,0 9 5 SSE 1015,2 10
01.08.2020 20:00:00 20,8 12,0 11 6 SSE 1015,5 10
01.08.2020 19:00:00 22,2 10,7 15 8 SSE 1015,8 10
01.08.2020 18:00:00 22,4 11,2 16 9 SSE 1016,0 10
01.08.2020 17:00:00 23,5 10,2 16 9 SE 1016,2 10
01.08.2020 16:00:00 25,2 9,9 5 3 E 1016,3 10
01.08.2020 15:00:00 24,9 8,8 8 4 WSW 1016,7 10
01.08.2020 14:00:00 24,8 8,3 5 3 - 1017,2 10
01.08.2020 13:00:00 24,7 8,6 5 3 - 1017,6 10
01.08.2020 12:00:00 24,0 12,3 8 4 N 1017,9 10
01.08.2020 11:00:00 22,6 12,2 4 2 - 1018,0 10
01.08.2020 10:00:00 21,0 14,4 4 2 - 1018,0 10
01.08.2020 09:00:00 19,8 15,0 5 3 - 1018,0 10
01.08.2020 08:00:00 18,3 14,9 7 4 N 1018,0 50
01.08.2020 07:00:00 16,9 14,6 4 2 - 1017,9 10
01.08.2020 06:00:00 13,6 13,6 4 2 W 1017,7 10
01.08.2020 05:00:00 11,0 11,0 0 0 N 1017,9 8
01.08.2020 04:00:00 10,8 10,7 0 0 N 1017,9 3,6
01.08.2020 03:00:00 11,4 11,2 0 0 N 1018,1 5
01.08.2020 02:00:00 11,8 11,5 0 0 N 1018,1 10
01.08.2020 01:00:00 12,2 11,6 0 0 N 1018,1 10
01.08.2020 00:00:00 13,4 12,1 4 2 W 1018,1 10
31.07.2020 23:00:00 14,3 12,3 5 3 WNW 1017,9 10
31.07.2020 22:00:00 16,4 12,4 8 4 WNW 1017,8 10
31.07.2020 21:00:00 18,1 12,8 9 5 NNW 1017,3 10
31.07.2020 20:00:00 19,9 12,6 15 8 NNW 1016,8 10
31.07.2020 19:00:00 20,6 12,8 15 8 NW 1016,7 10
31.07.2020 18:00:00 20,5 12,5 16 9 NNW 1016,6 10
31.07.2020 17:00:00 21,0 12,7 16 9 NNW 1016,4 10
31.07.2020 16:00:00 20,7 12,9 26 14 NNW 1016,1 10
31.07.2020 15:00:00 20,9 13,6 22 12 NW 1015,8 10
31.07.2020 14:00:00 20,9 13,1 26 14 NW 1015,3 10
31.07.2020 13:00:00 19,8 13,3 18 10 NNW 1015,0 10
31.07.2020 12:00:00 20,1 13,8 16 9 N 1014,6 10
31.07.2020 11:00:00 19,6 13,8 22 12 NNW 1014,3 10
31.07.2020 10:00:00 17,9 13,6 16 9 N 1013,5 10
31.07.2020 09:00:00 16,6 14,1 21 11 N 1012,7 10
31.07.2020 08:00:00 15,8 14,0 18 10 NNW 1011,9 10
31.07.2020 07:00:00 14,8 13,8 16 9 NNW 1011,1 10
31.07.2020 06:00:00 14,4 13,4 22 12 NNW 1010,2 10
31.07.2020 05:00:00 14,2 13,4 16 9 NNW 1009,0 10
31.07.2020 04:00:00 14,5 13,4 15 8 N 1008,0 10
31.07.2020 03:00:00 14,9 14,3 18 10 NNW 1006,3 10
31.07.2020 02:00:00 14,8 14,3 15 8 NW 1004,9 6
31.07.2020 01:00:00 15,2 14,7 21 11 W 1004,1 5
31.07.2020 00:00:00 15,0 14,5 26 14 W 1003,8 6
30.07.2020 23:00:00 14,9 14,6 26 14 W 1003,5 3,2
30.07.2020 22:00:00 14,9 14,4 29 16 W 1003,6 10
30.07.2020 21:00:00 15,1 14,5 24 13 W 1003,6 9
30.07.2020 20:00:00 15,1 14,3 21 11 W 1003,5 10
30.07.2020 19:00:00 15,3 14,3 15 8 SW 1003,8 10
30.07.2020 18:00:00 14,5 13,7 8 4 SW 1004,2 10
30.07.2020 17:00:00 17,1 13,8 26 14 W 1004,4 10
30.07.2020 16:00:00 20,3 12,3 28 15 W 1003,6 10
30.07.2020 15:00:00 21,3 12,2 22 12 WSW 1003,2 10
30.07.2020 14:00:00 21,1 12,0 28 15 W 1003,8 10
30.07.2020 13:00:00 20,5 12,0 24 13 WSW 1003,9 10
30.07.2020 12:00:00 19,6 12,4 24 13 WSW 1003,9 10
30.07.2020 11:00:00 18,3 12,7 21 11 W 1004,1 10
30.07.2020 10:00:00 17,2 12,9 16 9 W 1003,9 10
30.07.2020 09:00:00 16,7 13,0 16 9 W 1003,8 10
30.07.2020 08:00:00 15,1 13,1 18 10 WNW 1003,4 10
30.07.2020 07:00:00 14,4 13,1 16 9 W 1002,8 10
30.07.2020 06:00:00 14,3 13,3 13 7 W 1002,4 10
30.07.2020 05:00:00 14,3 13,3 9 5 WNW 1001,8 10
30.07.2020 04:00:00 14,2 12,9 5 3 SE 1001,3 10
30.07.2020 03:00:00 14,6 12,6 5 3 SSE 1001,5 10
30.07.2020 02:00:00 14,8 12,3 5 3 S 1002,0 10
30.07.2020 01:00:00 14,9 11,9 9 5 S 1002,6 10
30.07.2020 00:00:00 15,5 11,9 11 6 S 1003,0 10
29.07.2020 23:00:00 15,4 12,0 9 5 S 1003,5 10
29.07.2020 22:00:00 15,6 11,6 9 5 S 1003,8 10
29.07.2020 21:00:00 15,9 10,9 13 7 S 1004,0 10
29.07.2020 20:00:00 16,7 11,0 13 7 S 1004,1 10
29.07.2020 19:00:00 17,1 10,9 15 8 S 1004,4 10
29.07.2020 18:00:00 18,2 11,3 13 7 S 1004,6 10
29.07.2020 17:00:00 16,6 12,1 11 6 SSW 1005,1 10
29.07.2020 16:00:00 15,3 13,0 22 12 S 1005,2 10
29.07.2020 15:00:00 18,4 11,7 13 7 S 1005,0 10
29.07.2020 14:00:00 15,4 12,5 18 10 S 1005,3 10
29.07.2020 13:00:00 17,3 10,2 16 9 SSW 1005,3 10
29.07.2020 12:00:00 18,7 9,7 15 8 WSW 1005,3 10
29.07.2020 11:00:00 16,8 10,0 16 9 WSW 1005,4 10
29.07.2020 10:00:00 16,0 10,5 16 9 W 1005,2 10
29.07.2020 09:00:00 16,2 12,2 18 10 W 1004,8 10
29.07.2020 08:00:00 15,6 12,2 13 7 W 1004,4 10
29.07.2020 07:00:00 14,9 13,3 9 5 SW 1004,2 10
29.07.2020 06:00:00 12,8 12,6 11 6 SW 1004,3 10
29.07.2020 05:00:00 11,9 11,7 8 4 SW 1004,2 10
29.07.2020 04:00:00 12,3 11,8 5 3 SSW 1004,2 10
29.07.2020 03:00:00 13,5 12,7 9 5 SW 1004,0 10
29.07.2020 02:00:00 14,2 13,2 13 7 WSW 1003,8 10
29.07.2020 01:00:00 14,5 13,5 13 7 WSW 1003,7 10
29.07.2020 00:00:00 15,8 14,5 15 8 W 1003,5 10
28.07.2020 23:00:00 17,1 16,6 5 3 - 1003,0 10
28.07.2020 22:00:00 17,0 16,5 13 7 ESE 1003,3 10
28.07.2020 21:00:00 17,2 16,1 16 9 ESE 1003,9 10
28.07.2020 20:00:00 17,0 15,7 21 11 ESE 1004,3 10
28.07.2020 19:00:00 17,3 14,8 26 14 ESE 1005,3 10
28.07.2020 18:00:00 18,3 14,0 26 14 ESE 1006,0 10
28.07.2020 17:00:00 18,5 14,0 24 13 ESE 1006,3 10
28.07.2020 16:00:00 18,0 15,1 18 10 SSE 1007,3 10
28.07.2020 15:00:00 19,0 13,6 24 13 SE 1007,9 10
28.07.2020 14:00:00 19,6 13,1 24 13 SE 1008,1 10
28.07.2020 13:00:00 19,2 12,9 28 15 SE 1008,8 10

tt = Température de l'air
td = dewpoint
ff = Vitesse du vent
dd = Direction du vent
ppp = reduced air pressure
vv = visibility

stations d'obs. à proximité